Theta_e
283 283 283 284 284 285 285 286 287 287 288 288 288 289 289 290 290 290 289 289 289 289 289 289 289 289 289 289 289 288 288 288 288 288 287 287 286 286 285 285 285 285
282 282 283 283 283 283 284 284 285 285 285 286 287 287 288 288 288 288 288 288 288 287 288 288 288 288 288 288 288 287 287 287 287 288 286 286 286 286 285 285 285 285
281 281 281 281 281 281 282 283 283 283 283 284 284 285 285 286 286 286 287 287 286 287 286 287 287 287 286 287 287 287 286 286 286 287 286 286 286 286 286 285 285 285
280 280 280 280 281 281 281 282 282 282 282 282 283 284 284 284 284 284 285 285 286 286 286 286 285 286 286 286 286 286 286 286 286 286 286 285 285 285 285 285 285 284
279 279 279 280 280 281 280 280 280 280 280 281 281 282 282 282 283 283 283 283 284 285 285 285 285 285 285 285 285 284 285 285 285 285 285 284 285 285 285 284 284 283
278 278 278 278 278 279 279 279 279 279 279 279 280 281 281 281 281 282 282 282 283 283 283 284 284 284 285 284 284 284 284 284 284 284 284 284 284 284 284 284 283 283
276 277 277 277 277 277 277 277 278 278 278 278 279 279 280 279 280 280 281 281 281 282 282 283 283 284 284 284 283 283 283 283 283 284 283 283 283 283 284 283 283 282
275 275 276 276 275 276 275 276 276 276 276 277 276 277 278 278 278 278 279 279 280 280 281 282 282 283 283 284 283 282 283 283 283 283 282 282 282 282 283 283 282 282
274 274 274 274 274 274 274 274 274 275 275 275 275 276 277 277 277 277 277 278 278 279 279 280 281 281 282 282 283 282 282 282 282 282 282 282 281 282 282 282 282 281
274 273 273 273 273 273 273 273 273 273 274 273 274 274 274 275 276 276 276 276 277 277 278 278 279 279 279 280 280 281 282 282 282 282 281 281 281 281 282 282 281 281
273 272 272 272 272 272 272 273 273 273 273 273 273 273 274 274 274 275 275 275 275 276 277 277 278 278 278 278 279 279 279 280 281 281 282 281 281 281 281 281 281 281
272 272 271 271 272 272 272 272 273 272 272 272 273 272 273 273 273 274 274 274 275 275 276 276 276 277 277 277 278 279 279 280 280 280 281 281 281 282 282 282 281 281
272 271 271 271 271 271 272 272 272 272 271 271 272 271 272 272 272 273 273 274 274 274 274 274 275 275 276 276 277 278 278 278 279 280 280 280 280 281 281 281 281 281
271 271 270 270 270 270 271 271 271 271 271 271 271 270 271 271 271 271 272 273 273 273 274 274 274 274 275 275 276 276 277 278 278 278 279 279 279 280 280 280 280 280
270 270 270 269 269 269 270 270 270 270 270 270 270 270 270 271 271 271 271 271 271 271 272 272 272 272 273 273 274 276 277 277 277 277 277 278 278 279 279 279 279 280
270 269 268 268 268 268 269 269 269 269 269 269 268 269 269 270 270 270 269 269 269 269 269 269 270 271 272 274 276 276 276 277 277 277 277 277 277 277 277 278 278 279
269 268 268 267 267 268 268 268 268 268 268 268 268 267 267 268 268 267 267 268 268 267 267 268 268 269 271 275 276 277 277 276 274 273 274 274 274 273 273 274 275 276
268 267 266 266 266 267 267 267 267 267 267 267 266 266 266 266 266 266 266 266 266 266 266 266 267 268 272 274 275 276 276 274 273 272 272 273 273 272 272 272 273 273
267 266 266 265 265 266 266 266 266 265 265 264 264 265 265 265 265 265 265 265 265 264 264 265 265 267 271 273 274 275 276 273 271 271 271 271 270 270 270 270 271 271
267 266 265 265 265 265 265 265 264 263 264 264 264 265 264 264 264 264 264 263 263 263 263 264 264 266 271 272 273 274 275 273 270 269 270 269 269 269 269 269 270 270
265 264 264 264 264 264 263 263 263 263 262 263 264 264 263 263 263 263 263 263 262 262 263 263 263 268 270 272 273 273 274 273 270 269 269 269 268 269 269 269 269 269
264 264 263 262 263 262 262 262 262 262 261 262 263 263 263 264 264 263 263 262 262 262 262 262 264 267 269 271 272 272 272 270 270 269 268 268 268 268 268 269 269 268
264 262 262 262 262 261 261 261 261 261 261 262 261 262 262 263 262 263 263 262 261 261 261 262 262 265 268 270 271 271 270 268 268 268 268 267 267 268 269 268 268 267
263 262 261 261 261 260 261 261 261 261 261 261 261 260 261 261 262 262 263 263 261 261 261 261 261 263 267 269 270 270 270 268 268 267 267 267 267 268 268 267 267 267
262 262 261 261 260 260 260 260 260 260 261 261 260 261 261 262 262 262 262 262 262 261 262 261 261 262 265 268 269 269 269 267 267 266 266 266 267 266 266 267 266 267
262 261 260 260 259 259 260 260 260 260 260 259 260 261 261 262 262 261 260 261 262 262 261 261 260 261 262 267 267 268 269 267 266 265 265 265 265 265 265 265 265 265
Wind_Speed
11 10 9 9 8 8 7 7 6 6 5 5 5 6 6 6 6 7 8 8 9 10 10 11 11 11 10 11 12 11 12 13 12 12 13 14 14 16 15 17 16 15
13 12 10 8 8 8 8 8 8 7 6 6 6 6 6 6 7 7 7 8 8 9 10 11 11 11 11 10 11 12 11 12 13 10 12 15 14 15 16 17 16 16
13 13 12 12 10 10 10 8 7 7 6 7 7 6 6 6 6 6 7 7 8 8 9 10 10 10 10 11 11 11 11 12 13 12 12 14 14 14 14 14 14 17
13 12 11 11 11 10 10 8 8 7 7 7 7 7 6 6 6 6 6 6 7 7 8 8 9 10 10 11 11 11 12 12 12 11 12 12 12 13 14 12 13 14
12 11 11 10 11 10 9 9 9 9 9 8 8 8 7 8 7 7 6 6 6 7 7 8 8 9 10 10 11 10 11 11 11 12 12 13 12 12 12 12 13 14
12 11 11 10 11 10 9 10 9 9 9 9 10 8 8 9 8 8 8 8 7 7 7 7 8 8 8 9 9 10 10 10 10 11 13 13 13 12 10 11 13 14
12 11 12 10 11 11 10 9 9 9 8 8 8 8 8 9 9 9 8 8 8 8 7 7 8 8 7 8 9 10 9 10 11 12 13 12 12 13 13 12 13 14
11 10 9 10 10 10 9 10 9 9 9 9 8 8 8 8 8 8 8 9 8 8 7 7 7 7 7 8 8 9 10 9 10 11 12 13 12 13 13 11 11 13
10 10 10 11 10 9 9 10 9 9 9 9 9 8 8 8 8 8 8 8 8 7 7 7 7 7 7 7 7 8 9 10 10 11 12 13 13 13 13 12 13 12
10 10 10 10 10 9 10 10 9 9 9 9 9 8 9 8 8 8 8 8 7 7 7 7 7 7 7 7 8 8 9 10 11 11 11 12 13 13 13 12 12 12
10 10 11 11 10 9 10 10 10 9 8 9 9 9 9 9 8 8 8 8 8 8 8 8 8 8 7 7 6 6 7 8 8 9 10 12 12 12 11 11 12 13
10 11 11 11 10 10 10 10 9 9 9 8 9 9 9 9 9 9 8 9 9 9 9 8 8 8 7 7 7 7 7 7 7 7 8 9 10 11 12 12 12 13
11 10 11 10 10 10 10 9 9 10 9 9 8 8 8 8 8 8 8 8 8 8 8 9 9 8 8 8 8 8 8 8 8 8 9 8 8 8 9 10 11 13
9 10 9 9 9 10 9 9 9 9 9 8 8 9 9 9 9 8 8 7 8 7 8 8 8 8 8 8 8 9 9 9 9 9 9 9 9 9 9 9 9 9
9 8 8 9 9 9 9 9 9 9 9 8 8 8 7 8 8 9 9 9 8 8 8 8 7 6 6 7 9 10 8 8 9 9 9 9 9 9 9 8 8 8
9 8 8 8 8 8 8 8 8 9 9 9 8 8 8 8 8 7 7 7 7 8 7 6 6 5 9 17 13 9 8 7 8 7 7 7 7 7 7 8 8 8
8 8 8 8 8 8 8 8 8 8 8 9 8 7 7 7 6 7 6 6 6 6 7 6 6 6 15 16 15 15 10 6 6 6 6 6 6 7 7 7 7 9
7 7 7 8 8 8 8 8 8 8 8 8 7 7 7 6 7 6 6 6 6 6 6 6 6 11 16 16 15 15 13 4 4 5 6 6 6 7 7 7 7 7
7 7 7 7 7 7 7 7 7 8 7 7 7 7 6 6 6 6 6 6 6 7 7 6 7 13 16 17 16 15 16 6 5 5 6 6 6 6 6 6 7 7
6 6 7 7 7 7 6 7 7 7 7 7 6 6 6 6 6 6 6 6 6 6 7 6 7 12 16 16 15 15 16 7 4 5 5 5 6 6 6 7 7 7
6 6 6 7 6 6 6 6 6 6 7 6 5 5 6 6 6 6 5 5 6 6 6 6 6 14 15 16 15 15 16 9 5 5 5 5 6 6 6 6 6 7
6 6 6 6 6 5 6 6 6 6 6 6 5 5 5 5 5 4 5 5 5 6 6 6 7 14 16 15 16 15 16 8 7 7 5 6 6 6 6 4 5 7
5 5 5 6 5 5 6 6 6 6 5 5 5 5 5 5 5 4 4 4 5 5 6 6 6 12 16 16 16 17 13 8 8 6 6 7 7 6 4 5 6 8
5 5 5 5 5 6 6 6 6 5 5 4 5 5 5 5 4 4 3 3 4 5 5 6 6 10 16 16 16 17 14 9 7 6 7 7 7 4 5 6 7 12
5 5 5 5 6 5 5 6 7 6 5 4 4 5 5 4 4 3 4 3 3 3 6 6 6 8 14 16 17 17 13 8 7 6 6 8 5 4 6 7 7 8
4 4 5 5 6 5 5 5 6 6 5 5 5 4 4 4 4 3 4 3 2 3 4 5 6 7 10 17 17 17 16 10 6 7 7 7 3 4 6 7 7 7
Wind_Direction
12 12 11 12 16 8 0 355 343 330 317 306 292 289 284 284 275 258 250 239 235 236 236 235 234 233 232 233 233 235 238 239 238 234 232 229 231 229 230 229 228 230
7 7 8 8 13 10 6 8 3 359 351 341 333 322 313 311 300 290 278 266 252 243 243 242 239 237 235 234 232 234 237 237 239 234 237 235 235 234 234 231 229 230
3 2 3 5 2 3 1 4 5 3 1 357 353 349 340 329 315 304 289 279 272 263 253 247 246 242 238 238 237 235 236 237 238 236 235 238 237 237 237 233 232 231
360 359 358 358 356 356 355 356 360 1 355 357 355 349 349 341 336 328 314 299 282 277 269 259 251 247 241 239 235 238 239 239 239 238 239 239 238 240 241 237 236 234
355 354 355 354 353 350 353 353 356 355 352 350 347 347 350 348 344 348 342 333 316 298 286 275 266 257 251 247 241 242 239 241 239 235 238 240 239 238 239 237 237 237
353 351 352 350 352 347 351 350 351 350 348 348 346 343 347 345 342 342 341 339 336 324 309 294 280 270 262 254 251 247 245 242 241 236 237 239 240 236 235 231 233 236
350 347 349 346 348 344 348 345 345 345 345 343 339 339 346 341 343 340 338 337 331 329 324 318 304 292 279 268 259 257 252 250 248 244 243 243 242 242 238 233 232 234
347 344 344 340 343 338 347 341 342 342 339 340 338 336 340 335 337 337 334 332 329 325 327 323 319 309 296 280 270 265 260 256 254 248 248 248 246 246 242 239 236 236
344 342 342 337 341 336 341 338 339 339 338 339 336 334 337 334 334 332 330 328 324 323 325 324 322 321 318 308 296 281 271 265 258 252 250 252 249 247 245 240 240 238
341 340 338 336 337 334 336 335 337 335 336 337 333 334 332 332 333 332 331 327 325 327 328 327 327 325 322 318 311 304 291 278 270 264 258 254 253 252 249 244 243 242
338 339 335 334 333 331 331 332 335 336 335 335 333 332 333 332 333 335 333 333 332 332 331 329 328 325 320 313 306 301 299 294 287 278 269 265 261 257 253 251 249 248
336 336 333 329 328 328 329 331 332 337 336 335 335 334 332 335 336 336 334 332 334 330 331 327 326 322 315 313 310 307 302 299 294 288 282 277 273 267 263 260 256 253
333 331 329 326 327 326 325 326 329 334 337 334 335 333 332 334 335 333 331 333 328 330 328 328 326 323 321 321 324 322 319 311 304 299 293 289 284 282 279 273 268 265
333 329 324 323 323 321 321 323 326 331 336 335 334 336 335 336 333 332 330 335 331 333 330 330 327 324 326 331 327 321 311 307 305 303 300 297 296 294 291 285 282 279
329 326 321 320 320 319 320 321 324 329 333 334 336 334 336 333 334 335 335 337 337 337 336 332 331 327 332 327 310 305 304 301 301 300 300 298 296 298 298 298 295 289
324 321 317 319 318 316 317 318 320 326 329 332 333 335 333 336 337 337 339 335 337 336 335 330 324 323 317 314 316 316 312 304 295 297 306 316 320 325 327 322 316 312
319 317 317 317 315 314 316 315 316 321 323 327 328 330 330 333 337 334 338 336 337 332 327 322 319 318 320 326 328 326 325 350 16 1 352 345 348 349 334 328 330 327
316 313 312 312 313 310 313 311 311 314 319 320 321 322 326 332 328 331 330 334 331 327 321 318 319 322 330 329 329 327 333 20 10 11 352 345 355 352 342 339 334 331
312 308 308 308 309 308 307 304 305 311 314 316 313 314 318 321 322 327 328 332 329 325 319 321 325 323 332 332 331 329 330 21 16 19 0 353 351 344 341 337 336 334
308 306 303 301 303 306 304 303 304 305 311 309 307 313 315 312 316 323 327 329 331 327 323 325 322 324 335 337 334 333 330 19 29 24 357 351 340 336 335 335 336 338
303 304 299 299 301 300 303 300 301 306 308 307 310 313 312 314 321 325 321 328 330 333 329 325 316 336 343 342 341 341 336 355 17 7 341 340 340 332 331 326 340 348
305 299 297 296 299 302 300 298 300 304 307 306 310 308 306 305 310 311 317 330 335 333 333 332 333 346 347 346 347 346 348 343 341 337 339 337 328 332 326 338 1 353
305 298 294 294 298 302 300 300 303 305 304 310 311 307 307 312 312 317 326 336 340 339 343 338 337 342 347 348 350 348 352 344 335 330 331 329 326 328 332 357 348 345
304 298 289 293 299 296 301 302 306 303 304 316 308 304 304 306 312 320 333 352 356 346 352 345 336 338 348 347 349 347 351 346 336 335 327 325 319 336 348 331 330 335
297 296 293 293 294 294 299 302 307 310 310 309 300 294 292 299 320 327 337 355 13 346 359 359 338 340 346 348 350 351 349 350 342 332 327 320 323 340 332 326 329 334
297 293 295 296 294 297 300 299 306 309 315 315 309 300 312 319 324 336 339 349 8 355 5 350 343 344 343 348 349 349 348 348 347 332 327 320 2 350 329 330 338 335